Regional Weather Roundup
Issued by NWS

Home | Current Version | Previous Version | Graphics & Text | Print | Product List | Glossary On
Versions: 1 2 3 4 5 6 7 8 9 10 11 12 13 14 15 16 17 18 19 20 21 22 23 24 25 26 27 28 29 30 31 32 33 34 35 36 37 38 39 40 41 42 43 44 45 46 47 48 49 50
000
ASUS45 KTFX 091910
RWRMT
MONTANA REGIONAL WEATHER ROUNDUP
NATIONAL WEATHER SERVICE GREAT FALLS MT
1200 PM MST TUE FEB 09 2016

NOTE: "FAIR" INDICATES FEW OR NO CLOUDS BELOW 12000 FEET WITH NO
SIGNIFICANT WEATHER AND/OR OBSTRUCTIONS TO VISIBILITY.

MTZ001>007-043-092000-
WEST OF THE DIVIDE

CITY           SKY/WX    TMP DP  RH WIND       PRES   REMARKS
KALISPELL      MOSUNNY   34  27  75 CALM      30.46F
MISSOULA       MOSUNNY   28  26  92 CALM      30.48F FOG
BUTTE          SUNNY     26  21  81 S5        30.44F
MULLAN PASS    SUNNY     44  31  60 VRB6      30.41F
ANACONDA         N/A     43  28  56 E7        30.42F
DEER LODGE       N/A     36  30  80 CALM      30.45F
HAMILTON         N/A     39  32  75 NW5       30.44F
LIBBY            N/A     30  27  86 CALM      30.49F
PLAINS           N/A     35  31  86 CALM      30.43F
$$

MTZ008-052>055-092000-
SOUTHWEST MONTANA

CITY           SKY/WX    TMP DP  RH WIND       PRES   REMARKS
BOZEMAN        SUNNY     32  27  81 SE3       30.42F
DILLON         SUNNY     38  28  67 S6        30.44F
ENNIS          SUNNY     45  27  49 S12       30.49F
TWIN BRIDGES     N/A     37  27  68 S7        30.38F WCI  31
$$

MTZ009-010-012-014-046-048-049-054-092000-
EAST SLOPES AND CENTRAL MONTANA

CITY           SKY/WX    TMP DP  RH WIND       PRES   REMARKS
CUT BANK       SUNNY     63  23  21 W15       30.20F
GREAT FALLS    SUNNY     60  27  28 SW20      30.25F
MALMSTROM AFB  SUNNY     59  27  29 SW22      30.26F
HELENA         SUNNY     43  32  65 CALM      30.39F
CHOTEAU          N/A     66  16  14 SW7G16    30.24F
CONRAD           N/A     66  29  25 W9        30.22F
$$

MTZ011-013-016-021-045-047-050-051-092000-
NORTH CENTRAL MONTANA

CITY           SKY/WX    TMP DP  RH WIND       PRES   REMARKS
HAVRE          MOSUNNY   52  31  44 SW20      30.21F
LEWISTOWN      SUNNY     48  28  46 W7        30.26F
N BAR RANCH      N/A     57  19  23 W18G28    30.26F
CHINOOK          N/A     52  27  37 W13       30.20F
$$

MTZ017>020-022>027-061-062-092000-
NORTHEAST MONTANA

CITY           SKY/WX    TMP DP  RH WIND       PRES   REMARKS
GLASGOW          N/A    N/A N/A N/A SW6       30.17F
JORDAN           N/A     48  34  58 NW3       30.19F
SIDNEY         CLOUDY    39  21  48 NW3       30.20F
WOLF POINT     CLOUDY    41  31  67 SW7       30.19F
PLENTYWOOD       N/A     34  23  64 CALM      30.18F
POPLAR           N/A     39  28  65 CALM      30.19F
$$

MTZ028>42-056>058-092000-
SOUTHCENTRAL AND SOUTHEAST MONTANA

CITY           SKY/WX    TMP DP  RH WIND       PRES   REMARKS
BAKER          CLOUDY    42  28  57 W10       30.20F
BILLINGS       MOSUNNY   53  25  33 SW13      30.26F
LIVINGSTON     SUNNY     55  20  25 SW22G31   30.35F
MILES CITY     SUNNY     50  33  52 CALM      30.20F
FORSYTH          N/A     52  30  43 W7        30.21F
LAUREL           N/A     53  24  32 SW15      30.24F
ROUNDUP          N/A     61  25  25 SW14      30.13F
$$

REGIONAL REPORTS...DAKOTAS

CITY           SKY/WX    TMP DP  RH WIND       PRES   REMARKS
WILLISTON      CLOUDY    34  23  64 CALM      30.20F
MINOT          MOSUNNY   37  16  42 NW6       30.17F
DICKINSON      CLOUDY    38  22  52 NW13      30.13F WCI  30
BEACH          CLOUDY    41  25  52 NW12      30.20F
CROSBY           N/A     32  23  69 CALM      30.19F
TIOGA          PTSUNNY   32  25  74 N5        30.21F
WATFORD CITY   CLOUDY    34  23  64 N5        30.19F
BISMARCK       CLOUDY    37  12  35 W8        30.20F WCI  31
GRAND FORKS    CLOUDY    12   3  67 N15       30.30F WCI  -4
FARGO          CLOUDY    14   6  70 N15       30.27F WCI  -1
BUFFALO SD       N/A     46  30  53 NW23G29   30.10F
RAPID CITY     CLOUDY    49  30  48 N21G28    30.17F
$$

REGIONAL REPORTS...WYOMING/IDAHO/WASHINGTON

CITY           SKY/WX    TMP DP  RH WIND       PRES   REMARKS
GILLETTE       CLOUDY    48  31  51 NW15      30.26F
SHERIDAN       SUNNY     57  25  28 N14       30.24F
BUFFALO WY     SUNNY     51  30  44 N16G26    30.27F
CODY           SUNNY     50  27  40 NE8       30.32F
YELLOWSTONE LA   N/A     22  17  81 CALM      30.54F
IDAHO FALLS    CLOUDY    26  23  88 N10       30.59F FOG     WCI  16
SALMON         CLOUDY    18  16  93 CALM      30.61F
BOISE          CLOUDY    36  28  75 CALM      30.59F
SPOKANE        MOSUNNY   40  32  73 NE8       30.39F
$$

REGIONAL REPORTS...ALBERTA

CITY           SKY/WX    TMP DP  RH WIND       PRES   REMARKS
EDMONTON       SUNNY     43  27  52 SW10      30.05F
CALGARY        MOSUNNY   55  19  24 S8        30.13F
LETHBRIDGE     MOSUNNY   63  25  23 W21G28    30.14F
MEDICINE HAT   PTSUNNY   46  32  57 SW9       30.17F
WATERTON GATE    N/A     48  28  46 SW29G40     N/A
MILK RIVER       N/A     61  27  27 SW5         N/A
$$

REGIONAL REPORTS...SASKATCHEWAN

CITY           SKY/WX    TMP DP  RH WIND       PRES   REMARKS
SWIFT CURRENT  SUNNY     45  30  57 W16       30.09F
REGINA         FLURRIES  28  23  80 S8        30.17F WCI  20
SASKATOON      CLOUDY    28  27  93 SE10      30.14F WCI  19
CYPRESS HILLS    N/A     48  25  40 NW8         N/A
VAL MARIE        N/A     46  30  53 W10         N/A
ROCKGLEN         N/A     37  28  70 W8          N/A  WCI  31
ASSINIBOIA       N/A     39  30  70 SW9         N/A
$$



USA.gov is the U.S. government's official web portal to all federal, state and local government web resources and services.